FW3813 Weather Reports


time (UTC)temp
C
wind
direction
speed
KPH
gust
KPH
rain 1hr
cm
rain 24hr
cm
rain mn
cm
humidity
%
barometer
mb
20260902034058 10 327 4.8 11.3 0.00 0.00 0.00 68 1014.6
20260902033558 10 279 4.8 14.5 0.00 0.00 0.00 68 1014.6
20260902033107 10 282 4.8 14.5 0.00 0.00 0.00 68 1014.6
20260902032558 10 297 4.8 14.5 0.00 0.00 0.00 67 1014.6
20260902032058 11 317 4.8 9.7 0.00 0.00 0.00 65 1014.5
20260902031608 11 317 4.8 11.3 0.00 0.00 0.00 63 1014.5
20260902031101 11 314 4.8 11.3 0.00 0.00 0.00 63 1014.5
20260902030558 11 310 4.8 14.5 0.00 0.00 0.00 63 1014.5
20260902030104 11 333 6.4 14.5 0.00 0.00 0.00 62 1014.5
20260902025558 11 268 6.4 12.9 0.00 0.00 0.00 61 1014.6
20260902025101 12 292 4.8 12.9 0.00 0.00 0.00 60 1014.5
20260902024611 12 300 4.8 12.9 0.00 0.00 0.00 58 1014.5
20260902024100 12 309 4.8 12.9 0.00 0.00 0.00 58 1014.5
20260902023558 12 309 6.4 12.9 0.00 0.00 0.00 58 1014.4
20260902023106 12 300 3.2 11.3 0.00 0.00 0.00 57 1014.4
20260902022558 12 304 4.8 11.3 0.00 0.00 0.00 56 1014.4
20260902022101 12 300 4.8 16.1 0.00 0.00 0.00 56 1014.3
20260902021604 12 302 6.4 17.7 0.00 0.00 0.00 56 1014.3
20260902021058 12 282 8.0 17.7 0.00 0.00 0.00 57 1014.3
20260902020558 12 275 9.7 17.7 0.00 0.00 0.00 57 1014.3
20260902020104 12 307 9.7 16.1 0.00 0.00 0.00 57 1014.3
20260902015557 12 275 8.0 14.5 0.00 0.00 0.00 57 1014.4
20260902015057 12 293 6.4 14.5 0.00 0.00 0.00 57 1014.3
20260902014604 12 331 8.0 16.1 0.00 0.00 0.00 57 1014.4
20260902014101 13 275 9.7 16.1 0.00 0.00 0.00 57 1014.5
20260902013558 13 265 9.7 16.1 0.00 0.00 0.00 57 1014.5
20260902013110 13 281 9.7 16.1 0.00 0.00 0.00 56 1014.4
20260902012558 13 302 8.0 17.7 0.00 0.00 0.00 56 1014.5
20260902012057 13 297 8.0 20.9 0.00 0.00 0.00 56 1014.4
20260902011602 13 268 11.3 20.9 0.00 0.00 0.00 56 1014.5
20260902011058 13 313 12.9 22.5 0.00 0.00 0.00 56 1014.4
20260902010558 13 290 8.0 22.5 0.00 0.00 0.00 56 1014.4
20260902010105 13 298 8.0 30.6 0.00 0.00 0.00 56 1014.5
20260902005558 13 289 17.7 30.6 0.00 0.00 0.00 56 1014.3
20260902005057 13 272 17.7 32.2 0.00 0.00 0.00 55 1014.3
20260902004602 13 265 17.7 32.2 0.00 0.00 0.00 54 1014.3
20260902004058 14 281 17.7 29.0 0.00 0.00 0.00 52 1014.2
20260902003600 15 267 14.5 27.4 0.00 0.00 0.00 49 1014.2
20260902003110 15 297 9.7 25.7 0.00 0.00 0.00 45 1014.1
20260902002557 15 250 6.4 24.1 0.00 0.00 0.00 42 1013.9
20260902002058 15 296 9.7 24.1 0.00 0.00 0.00 42 1014.1
20260902001606 15 302 9.7 24.1 0.00 0.00 0.00 41 1014.1
20260902001058 16 292 6.4 19.3 0.00 0.00 0.00 41 1014.1
20260902000558 16 291 6.4 19.3 0.00 0.00 0.00 40 1014.1
20260902000059 16 298 6.4 19.3 0.00 0.00 0.00 39 1014.2
20260901235559 16 241 6.4 20.9 0.00 0.00 0.00 38 1014.3
20260901235100 17 205 4.8 20.9 0.00 0.00 0.00 34 1014.4
20260901234613 17 116 8.0 25.7 0.00 0.00 0.00 26 1014.3
20260901234058 18 186 4.8 25.7 0.00 0.00 0.00 26 1014.2
20260901233602 18 183 9.7 35.4 0.00 0.00 0.00 25 1014.3
20260901233104 18 159 11.3 40.2 0.00 0.00 0.00 26 1014.2
20260901232558 17 114 20.9 40.2 0.00 0.00 0.00 26 1013.9
20260901232058 17 225 17.7 37.0 0.00 0.00 0.00 27 1014.2
20260901231605 18 167 9.7 32.2 0.00 0.00 0.00 26 1014.3
20260901231058 18 103 3.2 19.3 0.00 0.00 0.00 27 1014.1
20260901230557 17 184 6.4 25.7 0.00 0.00 0.00 28 1014.2
20260901230105 17 135 9.7 35.4 0.00 0.00 0.00 27 1014.3
20260901225558 18 150 16.1 35.4 0.00 0.00 0.00 27 1014.2
20260901225057 18 139 19.3 33.8 0.00 0.00 0.00 27 1014.2
20260901224604 18 161 8.0 32.2 0.00 0.00 0.00 27 1014.3
20260901224057 18 146 14.5 32.2 0.00 0.00 0.00 26 1014.4
20260901223601 18 98 8.0 41.8 0.00 0.00 0.00 27 1014.3
20260901223105 17 128 9.7 41.8 0.00 0.00 0.00 27 1014.3
20260901222557 17 232 22.5 38.6 0.00 0.00 0.00 27 1014.3
20260901222057 17 139 9.7 32.2 0.00 0.00 0.00 27 1014.2
20260901221608 17 103 9.7 45.1 0.00 0.00 0.00 26 1014.3
20260901221057 18 281 11.3 45.1 0.00 0.00 0.00 26 1014.4
20260901220557 18 152 14.5 37.0 0.00 0.00 0.00 25 1014.1
20260901220118 18 206 16.1 46.7 0.00 0.00 0.00 24 1014.1
20260901215558 18 148 11.3 46.7 0.00 0.00 0.00 24 1014.1
20260901215058 18 152 19.3 46.7 0.00 0.00 0.00 23 1014.1
20260901214604 19 150 20.9 45.1 0.00 0.00 0.00 24 1014.0
20260901214059 18 188 17.7 43.5 0.00 0.00 0.00 24 1014.1
20260901213559 18 213 16.1 43.5 0.00 0.00 0.00 23 1014.0
20260901213112 18 93 9.7 35.4 0.00 0.00 0.00 26 1014.2
20260901212601 18 142 8.0 33.8 0.00 0.00 0.00 27 1014.1
20260901212101 18 189 9.7 29.0 0.00 0.00 0.00 28 1014.2
20260901211604 18 291 11.3 29.0 0.00 0.00 0.00 31 1014.3
20260901211101 17 117 12.9 24.1 0.00 0.00 0.00 33 1014.3
20260901210601 17 300 6.4 19.3 0.00 0.00 0.00 34 1014.4
20260901210104 17 295 4.8 24.1 0.00 0.00 0.00 34 1014.4
20260901205602 16 252 9.7 24.1 0.00 0.00 0.00 37 1014.5
20260901205106 17 297 8.0 20.9 0.00 0.00 0.00 35 1014.6
20260901204601 18 265 11.3 20.9 0.00 0.00 0.00 34 1014.8
20260901204102 17 249 9.7 20.9 0.00 0.00 0.00 35 1014.5
20260901203559 18 65 3.2 14.5 0.00 0.00 0.00 33 1014.6
20260901203106 18 28 6.4 37.0 0.00 0.00 0.00 34 1014.7
20260901202557 18 41 6.4 37.0 0.00 0.00 0.00 33 1014.7
20260901202057 18 96 11.3 25.7 0.00 0.00 0.00 29 1014.7
20260901201604 18 92 14.5 25.7 0.00 0.00 0.00 29 1014.7
20260901201104 18 338 6.4 16.1 0.00 0.00 0.00 35 1014.9
20260901200601 17 9 6.4 20.9 0.00 0.00 0.00 35 1014.9
20260901200104 17 317 8.0 20.9 0.00 0.00 0.00 35 1015.0
20260901195600 18 99 9.7 20.9 0.00 0.00 0.00 31 1015.0
20260901195101 18 58 8.0 19.3 0.00 0.00 0.00 34 1015.1
20260901194607 18 205 6.4 19.3 0.00 0.00 0.00 34 1015.2
20260901194102 18 163 4.8 32.2 0.00 0.00 0.00 33 1015.3
20260901193601 17 191 4.8 32.2 0.00 0.00 0.00 28 1015.4
20260901193116 17 140 9.7 30.6 0.00 0.00 0.00 25 1015.3
20260901192557 18 128 12.9 29.0 0.00 0.00 0.00 26 1015.4
20260901192101 17 195 16.1 33.8 0.00 0.00 0.00 32 1015.3
20260901191606 17 173 12.9 40.2 0.00 0.00 0.00 37 1015.2
20260901191101 16 153 14.5 40.2 0.00 0.00 0.00 35 1015.4
20260901190602 16 136 17.7 40.2 0.00 0.00 0.00 38 1015.3
20260901190112 16 155 22.5 40.2 0.00 0.00 0.00 41 1015.3
20260901185602 16 175 17.7 37.0 0.00 0.00 0.00 41 1015.5
20260901185101 16 152 9.7 37.0 0.00 0.00 0.00 43 1015.5
20260901184608 16 159 19.3 37.0 0.00 0.00 0.00 41 1015.4
20260901184058 16 148 16.1 54.7 0.00 0.00 0.00 42 1015.5
20260901183558 17 136 9.7 54.7 0.00 0.00 0.00 41 1015.4